Dora Oldendorff — A8VG5 — position and weather

sailwx.info

Track history (hours):
 
Tides and Currents Weather Stations Pressure Air Temp Water Temp Dewpoint Dewpoint Depression Visibility Wind Speed Wind Dir Waves Ship Positions

Dora Oldendorff

Last reported at 2018-Feb-15 22:17 UTC. Time now 2018-Feb-18 06:56 UTC.
Position N 37°44' E 024°18'.

Length 178 m; draft 10.2 m.

Type: Cargo ship. MMSI: 636092556.

Date/timePositionNaut miles runAvg speedWind from/ knotsBaromVisibWave heightAir tempDewpointWater temp
2018-Feb-15 22:17N 37°44' E 024°18'1010.5
2018-Feb-15 21:19N 37°36' E 024°10'45711.1
2018-Feb-14 04:18N 36°18' E 014°47'411.7
2018-Feb-14 03:57N 36°20' E 014°42'511.8
2018-Feb-14 03:30N 36°22' E 014°36'611.7
2018-Feb-14 03:00N 36°23' E 014°29'611.7
2018-Feb-14 02:30N 36°25' E 014°23'611.7
2018-Feb-14 02:00N 36°27' E 014°15'611.7
2018-Feb-14 01:30N 36°29' E 014°09'  
2018-Feb-10 20:54N 36°01' W 005°15'615.4
2018-Feb-10 20:30N 35°59' W 005°22'714.8
2018-Feb-10 20:00N 35°57' W 005°31'  
Track history (hours):
 
Tides and Currents Weather Stations Pressure Air Temp Water Temp Dewpoint Dewpoint Depression Visibility Wind Speed Wind Dir Waves Ship Positions

Dora Oldendorff

Last reported at 2018-Feb-15 22:17 UTC. Time now 2018-Feb-18 06:56 UTC.
Position N 37°44' E 024°18'.

Length 178 m; draft 10.2 m.

Type: Cargo ship. MMSI: 636092556.

Date/timePositionNaut miles runAvg speedWind from/ knotsBaromVisibWave heightAir tempDewpointWater temp
2018-Feb-15 22:17N 37°44' E 024°18'1010.5
2018-Feb-15 21:19N 37°36' E 024°10'45711.1
2018-Feb-14 04:18N 36°18' E 014°47'411.7
2018-Feb-14 03:57N 36°20' E 014°42'511.8
2018-Feb-14 03:30N 36°22' E 014°36'611.7
2018-Feb-14 03:00N 36°23' E 014°29'611.7
2018-Feb-14 02:30N 36°25' E 014°23'611.7
2018-Feb-14 02:00N 36°27' E 014°15'611.7
2018-Feb-14 01:30N 36°29' E 014°09'  
2018-Feb-10 20:54N 36°01' W 005°15'615.4
2018-Feb-10 20:30N 35°59' W 005°22'714.8
2018-Feb-10 20:00N 35°57' W 005°31'  

Dump ship's entire track history